Regional Weather Roundup
Issued by NWS

Home | Current Version | Previous Version | Text Only | Print | Product List | Glossary On
Versions: 1 2 3 4 5 6 7 8 9 10 11 12 13 14 15 16 17 18 19 20 21 22 23 24 25 26 27
000
ASUS44 KBMX 251810
RWRAL

ALABAMA REGIONAL WEATHER ROUNDUP
NATIONAL WEATHER SERVICE BIRMINGHAM AL
1200 PM CST SAT FEB 25 2017

NOTE: "FAIR" INDICATES FEW OR NO CLOUDS BELOW 12,000 FEET
WITH NO SIGNIFICANT WEATHER AND/OR OBSTRUCTIONS TO VISIBILITY.

THE REMARK "TC" DENOTES TEMPERATURE IN DEGREES CELSIUS.

ALZ001>011-014-016>018-020-251900-
NORTH ALABAMA

CITY           SKY/WX    TMP DP  RH WIND       PRES   REMARKS
MUSCLE SHOALS  SUNNY     48  24  39 NW8       30.06S
6HR MIN TEMP:  41; 6HR MAX TEMP:  49;

HUNTSVILLE     MOSUNNY   50  28  42 NW12      30.03S
6HR MIN TEMP:  46; 6HR MAX TEMP:  50;

DECATUR        SUNNY     47  28  47 W16       30.04S
6HR MIN TEMP:  44; 6HR MAX TEMP:  48;

HALEYVILLE     FAIR      46  22  38 NW12G18   30.06S
6HR MIN TEMP:  42; 6HR MAX TEMP:  47;

GADSDEN        SUNNY     55  28  35 NW13G21   29.99F
6HR MIN TEMP:  51; 6HR MAX TEMP:  55;

$$

ALZ012-013-022-023-030>036-040>044-251900-
WEST CENTRAL ALABAMA

CITY           SKY/WX    TMP DP  RH WIND       PRES   REMARKS
TUSCALOOSA     SUNNY     56  24  29 NW12G23   30.05F
6HR MIN TEMP:  50; 6HR MAX TEMP:  56;

$$

ALZ015-024>027-033>036-040>044-251900-
CENTRAL ALABAMA

CITY           SKY/WX    TMP DP  RH WIND       PRES   REMARKS
BIRMINGHAM     SUNNY     56  23  27 W13       30.03S
6HR MIN TEMP:  51; 6HR MAX TEMP:  57;

MONTGOMERY     SUNNY     67  30  25 W16G23    29.97F
6HR MIN TEMP:  61; 6HR MAX TEMP:  67;

SHELBY CO ARPT SUNNY     59  26  28 NW12G21   30.00S
6HR MIN TEMP:  52; 6HR MAX TEMP:  59;

MAXWELL AFB    SUNNY     65  29  25 NW12G20   29.96F
6HR MIN TEMP:  60; 6HR MAX TEMP:  66;

GREENVILLE     FAIR      66  26  22 NW14G21   29.96F
6HR MIN TEMP:  61; 6HR MAX TEMP:  67;

$$

ALZ019-021-028-029-037-038-045>048-251900-
EAST CENTRAL ALABAMA

CITY           SKY/WX    TMP DP  RH WIND       PRES   REMARKS
ANNISTON       SUNNY     60  25  26 W17G24    29.97S
6HR MIN TEMP:  54; 6HR MAX TEMP:  60;

ALEXANDER CITY SUNNY     61  26  25 NW14G21   29.96S
6HR MIN TEMP:  54; 6HR MAX TEMP:  62;

AUBURN         SUNNY     65  29  25 NW15      29.94F
6HR MIN TEMP:  55; 6HR MAX TEMP:  65; 6HR PCP:  0.02;

$$

ALZ051>064-251900-
SOUTHWEST ALABAMA

CITY           SKY/WX    TMP DP  RH WIND       PRES   REMARKS
MOBILE         SUNNY     69  34  27 NW13G18   30.01S
6HR MIN TEMP:  58; 6HR MAX TEMP:  69;

BROOKLEY FIELD SUNNY     72  37  28 N15G23    30.01S
6HR MIN TEMP:  61; 6HR MAX TEMP:  72;

EVERGREEN      SUNNY     67  31  26 NW13G18   29.99S
6HR MIN TEMP:  60; 6HR MAX TEMP:  68;

$$

ALZ049-050-065>069-251900-
SOUTHEAST ALABAMA

CITY           SKY/WX    TMP DP  RH WIND       PRES   REMARKS
DOTHAN         SUNNY     73  33  23 NW17      29.96S
6HR MIN TEMP:  64; 6HR MAX TEMP:  73;

OZARK          SUNNY     73  31  22 NW13G18   29.93F
6HR MIN TEMP:  63; 6HR MAX TEMP:  73;

TROY           SUNNY     68  34  28 VRB6      29.95F
6HR MIN TEMP:  63; 6HR MAX TEMP:  69;

EUFAULA        FAIR      74  18  12 VRB7G22   29.91F
6HR MIN TEMP:  64; 6HR MAX TEMP:  74;

$$




USA.gov is the U.S. government's official web portal to all federal, state and local government web resources and services.